Home > Weather > Budapest > Past weeks

Flag for Hungary Weather for the Past 2 Weeks in Budapest, Hungary

Now
70 °F

Sunny.


Feels Like: 70 °F
Forecast: 52 / 69 °F
Wind: 6 mph from North

Location: Ferenc Liszt International Airport

Current Time: May 6, 2016 at 5:57:41 PM

Latest Report: May 6, 2016 at 5:00 PM


Visibility: 10 mi

Pressure: 30.04 "Hg

Humidity: 40%

Dew Point: 45 °F

Location of BudapestLocation

Historic Weather in Budapest — Graph

°F

Budapest Temperature Yesterday

Maximum temperature yesterday: 72 °F (at 1:00 PM)
Minimum temperature yesterday: 52 °F (at 3:30 AM)
Average temperature yesterday: 60 °F

High & Low Weather Summary for the Past Weeks

 TemperatureHumidityPressure
High73 °F (May 6, 1:30 PM)100% (Apr 22, 2:30 AM)30.24 "Hg (Apr 22, 2:30 AM)
Low28 °F (Apr 26, 6:30 AM)28% (Apr 30, 3:30 PM)29.50 "Hg (Apr 24, 5:00 AM)
Average53 °F70%29.93 "Hg
* Reported Apr 21 4:00 PM — May 6 4:30 PM, Budapest, Weather by CustomWeather, © 2016

Note: Actual official high and low records may vary slightly from our data, if they occured in-between our weather recording intervals... More about our weather records

Advertising

Budapest Weather History for the Previous 24 Hours

Scroll right to see more
 ConditionsComfort  
Time TempWeatherWind HumidityBarometerVisibility
4:30 PM
Fri, May 6
68 °FSunny.5 mph38%30.04 "Hg10 mi
4:00 PM68 °FPassing clouds.9 mph40%30.04 "HgN/A
3:30 PM72 °FPassing clouds.7 mph33%30.04 "HgN/A
3:00 PM72 °FPassing clouds.5 mph33%30.04 "HgN/A
2:30 PM72 °FPassing clouds.6 mph33%30.04 "HgN/A
2:00 PM72 °FPassing clouds.9 mph31%30.04 "HgN/A
1:30 PM73 °FPassing clouds.10 mph31%30.07 "HgN/A
1:00 PM70 °FPassing clouds.7 mph31%30.07 "HgN/A
12:30 PM72 °FPassing clouds.8 mph38%30.07 "HgN/A
12:00 PM72 °FPassing clouds.9 mph41%30.09 "HgN/A
11:30 AM68 °FPassing clouds.6 mph43%30.09 "HgN/A
11:00 AM68 °FPassing clouds.7 mph49%30.09 "HgN/A
10:30 AM66 °FSunny.6 mph46%30.09 "Hg10 mi
10:00 AM66 °FPassing clouds.8 mph46%30.09 "HgN/A
9:30 AM64 °FSunny.10 mph49%30.09 "Hg10 mi
9:00 AM63 °FSunny.10 mph52%30.12 "Hg10 mi
8:30 AM61 °FPassing clouds.8 mph63%30.12 "HgN/A
8:00 AM61 °FSunny.6 mph59%30.12 "Hg10 mi
7:30 AM59 °FSunny.6 mph63%30.12 "Hg10 mi
7:00 AM55 °FSunny.5 mph67%30.12 "Hg10 mi
6:30 AM52 °FSunny.1 mph77%30.09 "Hg10 mi
6:00 AM50 °FClear.3 mph76%30.09 "Hg10 mi
5:30 AM48 °FClear.8 mph82%30.09 "Hg10 mi
5:00 AM50 °FClear.7 mph76%30.09 "Hg10 mi
4:30 AM50 °FClear.6 mph76%30.09 "Hg10 mi
4:00 AM52 °FClear.7 mph72%30.09 "Hg10 mi
3:30 AM52 °FClear.7 mph72%30.12 "Hg10 mi
3:00 AM52 °FClear.7 mph72%30.12 "Hg10 mi
2:30 AM52 °FClear.8 mph77%30.12 "Hg10 mi
2:00 AM54 °FClear.8 mph72%30.12 "Hg10 mi
1:30 AM54 °FClear.3 mph72%30.12 "Hg10 mi
1:00 AM54 °FPassing clouds.5 mph72%30.12 "HgN/A
12:30 AM55 °FClear.3 mph77%30.15 "Hg10 mi
12:00 AM57 °FPassing clouds.6 mph77%30.15 "HgN/A
11:30 PM
Thu, May 5
55 °FClear.7 mph82%30.15 "Hg10 mi
11:00 PM57 °FClear.2 mph77%30.15 "Hg10 mi
10:30 PM57 °FClear.3 mph77%30.15 "Hg10 mi
10:00 PM57 °FClear.8 mph77%30.12 "Hg10 mi
9:30 PM59 °FClear.9 mph77%30.12 "Hg10 mi
9:00 PM57 °FClear.6 mph77%30.12 "Hg10 mi
8:30 PM59 °FSunny.9 mph72%30.12 "Hg10 mi
8:00 PM59 °FSunny.9 mph72%30.12 "Hg10 mi
7:30 PM61 °FSunny.8 mph63%30.12 "Hg10 mi
7:00 PM63 °FSunny.8 mph59%30.12 "Hg10 mi
6:30 PM64 °FSunny.10 mph56%30.12 "Hg10 mi
6:00 PM63 °FSunny.12 mph59%30.12 "Hg10 mi
5:30 PM64 °FScattered clouds.14 mph60%30.12 "HgN/A
5:00 PM64 °FScattered clouds.15 mph60%30.12 "HgN/A
Weather by CustomWeather, © 2016

See weather overviewHow to use our weather pages